GFSFLT2_700_temp_018.txt.gz
Temp
4 4 3 1 1 1 3 3 4 4 4 4 4 4 4 4 4 3 3 3 3 2 3 2 2 3 2 2 2 2 1 1
3 1 2 3 2 0 2 3 4 4 4 4 4 4 4 3 3 3 3 3 3 2 2 2 2 2 2 2 2 1 1 1
3 2 2 2 1 2 3 3 4 4 4 4 4 4 3 3 3 3 3 2 2 2 2 1 2 1 1 1 1 1 1 1
4 3 3 2 0 2 3 3 4 4 4 4 4 3 3 3 2 2 2 2 1 1 1 1 1 1 0 1 1 2 2 2
3 2 2 2 3 4 4 3 4 4 4 4 3 3 3 3 2 2 2 1 1 1 1 1 0 0 0 0 1 1 1 1
2 3 4 3 4 4 3 4 4 4 4 4 3 3 3 3 2 2 1 1 1 0 0 1 0 -1 -0 0 0 1 1 1
4 4 5 4 4 4 4 3 4 4 4 4 3 2 2 2 2 1 1 1 1 1 1 0 -0 -1 -0 0 0 0 0 0
4 5 4 4 4 4 4 4 4 3 3 3 2 2 2 2 1 1 1 1 1 1 0 0 0 0 1 0 -0 -0 0 0
4 4 4 4 4 4 3 3 3 4 4 4 4 3 3 2 1 1 1 1 1 1 1 1 1 1 1 0 0 0 0 0
5 5 4 4 4 4 3 4 4 4 4 4 4 3 3 2 1 1 2 2 2 1 1 1 1 1 1 0 0 0 0 -0
5 4 4 4 3 3 3 3 4 3 3 3 3 3 2 2 2 2 2 1 1 1 1 1 1 0 0 -0 -0 -0 -0 -1
5 4 4 4 4 3 3 3 3 3 3 3 2 2 1 1 1 1 1 1 1 1 0 -0 -0 -0 -1 -1 -1 -1 -1 -1
5 4 4 4 4 4 4 3 3 3 3 2 1 1 1 1 1 0 -1 -1 -0 -1 -1 -1 -1 -1 -1 -1 -1 -2 -2 -2
4 4 4 4 4 4 3 3 3 3 2 2 1 1 0 -0 -0 -1 -1 -1 -1 -1 -1 -1 -1 -1 -1 -2 -2 -2 -2 -3
4 3 3 3 4 4 4 3 3 2 2 1 0 0 -0 -0 -1 -2 -1 -1 -1 -1 -2 -2 -2 -2 -2 -2 -2 -2 -2 -3
4 3 4 3 3 4 3 3 3 2 1 1 0 0 -0 -1 -2 -2 -2 -1 -1 -2 -2 -2 -2 -2 -2 -3 -3 -3 -3 -3
4 4 5 4 4 3 3 3 2 2 1 1 0 0 -1 -1 -2 -2 -2 -2 -2 -2 -2 -2 -2 -3 -3 -4 -4 -4 -4 -4
4 4 2 2 2 3 3 2 2 1 1 0 0 -0 -1 -2 -2 -2 -2 -2 -2 -3 -3 -3 -3 -3 -4 -4 -5 -5 -7 -8
4 4 2 2 2 2 2 2 1 0 -0 -0 -0 -1 -2 -2 -3 -2 -3 -3 -3 -4 -3 -4 -4 -5 -5 -5 -6 -7 -9 -9
4 4 2 2 2 2 1 1 1 0 0 -1 -1 -2 -2 -2 -3 -3 -3 -4 -4 -4 -4 -5 -6 -6 -6 -7 -8 -9 -10 -11

GFSFLT2_700_temp_021.txt.gz
Temp
3 4 4 3 2 3 3 3 3 3 3 4 4 4 4 4 3 4 4 4 3 3 3 2 2 2 2 1 2 2 2 2
2 4 4 1 0 1 2 3 3 3 4 4 4 4 4 3 3 4 3 3 3 2 2 2 2 2 1 1 1 1 1 1
2 2 2 1 1 1 2 2 3 3 3 3 3 3 3 3 3 3 3 2 2 2 2 2 2 2 2 1 1 1 1 2
2 1 2 0 1 3 3 3 3 3 3 3 3 3 3 3 3 2 2 2 2 2 2 1 1 1 1 1 1 1 2 2
1 1 1 1 1 2 3 4 3 3 3 3 3 3 3 3 3 2 2 2 2 1 1 1 1 1 1 1 1 1 1 1
2 1 1 2 3 3 3 3 4 3 3 3 3 3 2 2 2 2 1 1 1 1 1 0 0 -0 -0 -0 -0 -0 0 0
4 3 3 4 3 3 4 4 4 3 3 3 3 3 3 2 2 2 1 1 1 0 0 -0 -0 -0 -1 -1 -0 -0 -0 0
4 4 4 4 4 4 4 3 3 3 3 3 2 3 2 2 1 1 1 1 0 0 -0 -0 -0 -0 -0 -0 -0 -0 0 0
5 5 5 4 4 4 3 3 3 3 3 3 3 3 2 2 1 1 1 1 0 0 1 0 0 0 0 0 0 0 0 0
4 4 4 4 3 3 3 3 3 3 3 3 3 3 2 2 2 1 1 1 1 1 1 0 0 0 0 0 0 0 0 0
5 4 4 4 3 3 3 3 3 3 3 3 3 2 2 2 2 1 1 1 1 0 0 1 1 0 0 0 -0 -0 -0 -0
5 4 4 4 4 4 3 3 3 3 3 3 2 2 2 1 1 1 1 1 1 0 0 0 0 0 -0 -0 -1 -1 -1 -1
5 5 5 4 4 4 3 3 3 3 3 3 2 1 1 1 0 0 0 0 0 0 0 -0 -0 -0 -1 -1 -1 -1 -1 -1
5 4 4 4 3 3 3 2 3 3 3 2 1 1 0 0 -0 -0 0 0 -0 -0 -0 -0 -0 -1 -1 -2 -2 -2 -2 -2
4 4 4 3 3 3 3 3 3 3 2 2 1 1 0 0 0 0 -0 -0 -1 -1 -1 -1 -1 -2 -2 -2 -2 -2 -2 -3
4 4 4 3 3 3 2 2 2 2 2 1 1 1 0 0 -0 -1 -1 -2 -2 -3 -3 -2 -2 -2 -3 -3 -3 -3 -4 -4
4 4 3 3 3 3 2 2 2 2 2 1 1 0 -0 -0 -1 -1 -1 -2 -2 -2 -3 -3 -3 -3 -3 -4 -4 -4 -5 -5
4 4 3 3 3 2 3 2 2 2 2 1 0 0 -0 -1 -1 -1 -2 -2 -3 -3 -4 -4 -4 -4 -5 -5 -5 -5 -6 -7
4 3 3 3 2 1 1 1 2 1 1 1 0 -0 -1 -1 -2 -3 -3 -3 -3 -4 -4 -4 -6 -6 -6 -6 -6 -7 -8 -8
4 3 3 3 2 1 1 1 1 1 -0 -1 -1 -1 -2 -2 -3 -3 -3 -3 -3 -4 -5 -6 -6 -7 -7 -7 -8 -8 -9 -10

GFSFLT2_700_temp_024.txt.gz
Temp
4 4 3 3 1 0 2 3 4 4 3 3 3 3 4 4 4 4 4 3 3 3 3 2 2 2 2 2 1 1 1 2
4 2 2 2 1 -1 2 3 3 4 3 3 3 3 4 3 4 3 3 3 2 2 2 2 2 2 2 1 1 1 1 1
3 2 3 2 0 1 2 2 3 3 3 3 3 3 3 3 3 3 3 2 2 2 2 2 1 2 2 2 2 1 1 1
2 2 2 0 0 -0 -0 3 3 3 3 3 3 3 3 3 2 2 2 2 1 1 1 1 2 1 1 1 1 1 1 1
2 2 1 1 -0 1 3 5 4 3 3 3 3 3 2 2 2 2 2 1 1 1 1 1 1 1 1 1 0 0 0 0
1 1 0 2 2 2 2 4 3 3 3 3 3 2 2 2 2 2 1 1 1 1 1 1 0 0 0 0 0 0 0 0
2 2 3 3 3 4 4 4 3 3 3 3 2 2 2 1 1 1 1 1 1 0 0 -0 -0 0 0 0 0 -0 -0 -0
3 3 3 3 4 4 4 3 3 3 2 2 2 2 2 2 2 1 1 0 -0 -0 -0 0 0 0 0 0 -0 -0 -0 -0
4 4 4 4 4 4 3 3 3 2 2 2 2 3 2 2 1 1 0 -0 -0 -0 -0 0 0 0 1 1 0 0 0 -0
4 4 4 4 4 3 3 3 2 2 2 3 3 2 2 1 1 0 -0 -0 0 0 0 0 0 0 0 1 1 0 0 -0
4 4 4 4 3 3 3 3 3 3 3 3 3 2 1 1 1 0 0 0 0 -0 -0 -0 -0 0 0 0 0 -0 -0 -0
4 4 4 3 3 3 3 3 3 3 3 2 2 2 1 1 1 0 0 0 -0 -0 -0 0 -0 -0 -0 -0 -0 -0 -1 -1
4 4 4 4 4 3 3 3 2 3 2 2 2 1 1 1 0 0 -0 -0 0 -0 -0 -1 -1 -1 -1 -1 -1 -1 -1 -1
5 5 5 4 4 3 3 2 2 3 2 2 2 1 1 1 0 0 0 0 -0 -0 -1 -1 -2 -2 -2 -2 -2 -2 -2 -2
5 5 4 4 3 3 3 3 3 2 2 2 1 1 1 1 1 0 -0 -0 -1 -1 -1 -2 -2 -2 -2 -2 -2 -2 -3 -3
5 5 4 3 3 3 3 2 2 1 1 1 1 1 1 0 0 -0 -0 -1 -1 -1 -2 -3 -3 -3 -3 -4 -4 -4 -4 -4
4 4 4 4 3 3 2 2 1 1 1 1 1 1 0 0 -0 -0 -0 -1 -1 -2 -3 -3 -3 -4 -4 -5 -5 -6 -6 -6
4 4 4 3 3 2 2 1 1 1 1 1 1 0 -0 -0 -0 -0 -1 -1 -2 -3 -3 -3 -4 -5 -5 -5 -5 -7 -7 -7
5 4 3 3 2 2 2 1 0 1 1 1 0 0 0 0 0 -1 -2 -2 -3 -3 -3 -4 -5 -5 -6 -6 -7 -8 -8 -8
4 4 4 3 2 2 2 2 1 0 0 1 1 1 0 -0 -2 -3 -2 -3 -4 -3 -4 -6 -6 -6 -6 -7 -8 -9 -9 -9

GFSFLT2_700_temp_027.txt.gz
Temp
5 4 4 3 2 1 3 3 3 3 3 3 4 3 4 4 4 3 3 3 3 2 2 2 2 2 2 2 2 2 2 2
5 5 4 2 2 -0 1 1 2 3 3 4 3 3 3 4 3 3 3 3 2 2 2 1 1 2 2 2 2 1 2 2
4 3 4 3 2 -1 -0 1 2 1 3 3 3 3 3 3 3 2 2 2 2 1 1 1 1 2 2 2 2 2 1 1
3 3 3 2 1 -1 -0 0 0 1 2 2 3 3 3 2 2 2 2 2 1 1 1 1 1 1 1 1 1 1 1 1
3 2 2 2 1 0 -1 -1 0 2 2 2 3 2 2 3 2 2 2 1 1 1 1 1 1 1 1 1 1 1 1 1
2 1 0 0 0 -0 0 1 1 1 2 2 2 2 2 2 2 2 1 1 1 1 1 1 1 1 1 1 1 1 1 1
2 1 0 1 -0 -1 0 2 1 2 2 2 2 2 2 2 1 1 1 1 1 1 1 1 1 1 1 0 0 1 0 0
2 1 1 1 2 1 1 2 2 2 2 2 2 2 2 1 1 1 1 1 1 0 1 0 0 0 0 0 0 0 0 -0
3 2 2 3 2 2 2 2 2 2 2 2 1 1 2 1 1 1 1 0 0 0 0 0 0 0 -0 -0 -0 -0 0 -0
3 3 3 3 3 3 3 2 2 2 2 2 2 2 2 1 1 1 0 0 0 0 0 -0 -0 -1 -1 -1 -0 -0 0 -0
4 4 4 3 3 3 3 2 2 2 2 2 2 2 1 1 1 1 1 0 0 -0 -0 -0 -0 -1 -1 -1 -1 -0 -1 -1
4 4 4 3 3 3 3 3 3 2 2 2 2 2 1 1 1 1 1 0 -0 -0 -0 -0 -1 -1 -1 -1 -1 -1 -1 -1
4 4 4 4 3 3 3 3 3 2 2 2 2 2 2 2 1 1 0 0 -0 -0 -0 -0 -1 -1 -1 -2 -2 -2 -1 -2
5 4 4 4 3 3 3 2 2 2 2 2 2 2 2 1 1 1 0 -0 -0 -1 -1 -1 -1 -2 -2 -3 -2 -2 -2 -2
5 4 4 4 3 3 3 3 2 2 2 1 1 1 1 1 1 0 0 -0 -0 -1 -1 -2 -2 -2 -3 -3 -3 -3 -3 -3
5 5 4 4 3 3 3 2 2 1 1 1 1 1 1 0 0 0 -0 -0 -1 -1 -2 -3 -3 -3 -3 -3 -3 -3 -4 -4
5 4 4 4 4 3 2 2 2 1 0 0 -0 0 1 0 0 -0 -1 -1 -1 -2 -2 -3 -3 -4 -3 -4 -4 -4 -4 -4
4 4 4 4 3 3 3 2 2 1 1 0 0 0 0 0 -0 -0 -1 -2 -2 -3 -3 -3 -4 -4 -4 -4 -4 -4 -5 -5
5 4 4 4 3 3 3 2 2 2 1 -0 1 0 0 -0 -1 -1 -1 -2 -2 -3 -3 -4 -4 -4 -4 -5 -5 -5 -5 -7
5 5 4 4 3 3 3 2 2 1 1 1 0 -0 -1 -1 -1 -1 -1 -2 -3 -3 -4 -4 -5 -5 -5 -5 -5 -6 -7 -8

GFSFLT2_700_temp_030.txt.gz
Temp
5 5 5 4 2 2 3 4 4 3 4 4 4 3 4 3 3 3 3 3 3 2 2 2 2 2 2 2 2 2 2 2
5 4 5 3 2 -0 1 2 3 3 3 4 3 3 3 3 2 2 2 2 2 2 2 2 2 2 2 2 2 2 1 2
4 4 4 3 1 1 -1 1 2 2 2 2 3 3 3 3 2 2 2 2 2 2 1 1 1 1 2 1 1 1 1 1
4 4 2 2 1 1 -0 1 1 1 1 1 1 2 2 2 2 2 2 2 1 1 1 1 1 1 1 1 1 1 1 1
3 3 3 2 1 -1 -1 -2 -0 -0 1 1 1 2 2 2 2 2 2 1 1 1 1 1 1 1 1 1 1 1 1 1
2 2 3 2 1 -1 -1 -2 -1 1 1 1 1 2 2 2 2 2 1 1 1 1 1 1 1 1 1 1 1 1 1 1
1 1 1 -0 -0 -1 -1 -1 -1 1 1 1 1 2 2 2 1 1 1 1 1 1 1 1 1 1 1 1 1 0 0 0
1 1 0 -0 -1 -1 -1 -0 1 1 1 1 1 2 2 1 1 1 1 1 1 1 0 0 1 1 1 0 0 0 0 -0
2 1 0 1 -0 -0 0 1 1 1 1 1 1 1 1 1 1 1 1 1 1 1 0 1 0 0 0 0 0 -0 -0 -0
2 1 1 1 2 1 1 1 1 1 1 1 1 1 1 1 1 1 1 1 1 0 1 0 0 0 0 0 -0 -0 -0 0
2 2 2 1 2 2 2 2 2 2 2 2 1 1 2 2 1 1 1 1 1 1 1 0 0 -0 -0 -0 -0 -1 -0 -0
3 3 3 2 2 2 2 2 2 2 2 1 1 2 2 2 2 2 1 1 1 1 0 0 -0 -1 -1 -1 -1 -1 -1 -1
4 4 3 3 3 3 3 3 2 2 2 2 2 2 2 2 2 2 1 1 1 1 0 -0 -1 -1 -1 -1 -1 -1 -1 -2
4 4 4 3 3 3 3 3 3 2 2 2 2 2 2 2 2 2 1 1 1 0 -0 -0 -1 -1 -1 -2 -2 -3 -1 -2
4 4 4 4 3 3 3 3 3 3 2 2 1 1 1 2 1 1 1 1 0 -0 -1 -1 -2 -2 -2 -2 -3 -4 -3 -3
5 4 4 4 4 3 3 3 3 2 2 1 1 1 1 1 1 1 0 -0 -0 -1 -1 -2 -2 -2 -2 -3 -3 -3 -4 -4
5 5 5 4 4 4 3 3 2 2 2 1 1 1 1 1 0 0 0 -0 -1 -1 -2 -2 -3 -3 -3 -3 -3 -3 -3 -4
5 5 4 4 4 4 3 3 2 2 2 1 1 1 1 0 -0 -0 -0 -1 -1 -2 -2 -2 -3 -2 -3 -4 -4 -4 -4 -4
5 5 5 4 4 4 3 3 2 1 1 1 1 0 0 0 -0 -0 -0 -1 -1 -2 -2 -2 -2 -4 -4 -4 -4 -5 -5 -5
5 5 5 4 4 4 3 3 2 2 1 1 1 -0 -0 -0 -0 -1 -1 -1 -1 -2 -2 -3 -3 -3 -4 -4 -5 -5 -5 -5

GFSFLT2_700_temp_033.txt.gz
Temp
6 6 5 4 4 3 3 3 3 3 4 4 4 3 3 3 3 3 3 3 2 2 2 2 2 2 2 2 2 2 2 2
5 5 5 4 2 2 2 3 3 3 3 3 3 3 3 3 3 3 3 2 2 2 2 2 2 2 2 2 2 2 2 2
4 5 5 4 3 0 1 2 2 1 1 2 2 2 2 2 2 3 2 2 2 1 1 2 2 2 2 2 2 2 2 2
4 4 4 4 3 2 -1 0 0 -0 1 1 1 2 2 2 2 2 2 2 1 1 1 2 2 2 2 2 1 1 1 2
4 4 4 3 3 1 0 -1 -1 -1 0 1 1 2 2 2 2 2 1 1 1 1 1 1 1 1 1 1 2 1 1 1
3 3 3 3 1 0 -0 0 -1 -2 -2 -1 0 1 1 1 1 1 1 1 1 1 1 1 1 1 1 1 1 1 0 0
2 2 2 2 1 0 1 -1 -3 -2 -2 -1 1 0 1 1 1 1 1 1 1 1 1 1 1 1 1 1 1 1 0 0
1 2 1 1 1 1 0 -3 -1 -1 0 1 1 0 1 1 1 1 1 1 1 1 1 1 1 1 1 0 0 0 0 0
1 0 -0 -0 -1 -1 -2 -1 -1 -1 -0 0 0 1 1 1 1 1 1 1 1 1 0 0 0 0 -0 -0 0 1 1 1
1 1 -1 -1 -0 -1 -1 -1 -2 -0 0 1 1 1 1 1 1 1 1 1 1 1 0 0 0 -0 -0 0 0 1 1 1
2 1 1 1 0 -0 -1 -0 -0 0 1 1 1 1 1 1 2 2 1 1 1 0 1 0 0 -0 0 0 0 0 0 1
2 2 1 1 1 0 1 1 1 1 1 1 1 1 2 2 2 2 1 1 1 1 1 0 0 0 -0 -0 -1 -0 0 0
3 2 2 2 2 2 2 2 2 2 2 1 2 2 2 2 2 2 1 2 1 1 1 0 -0 -1 -1 -1 -0 1 1 0
4 3 3 3 3 3 3 3 2 2 2 2 2 2 2 2 2 2 2 1 1 1 0 -0 -0 -1 -1 -2 -1 -2 -2 -1
4 4 4 4 3 3 3 3 2 3 3 3 2 2 2 1 1 2 1 1 1 0 0 -0 -1 -1 -1 -2 -2 -3 -3 -4
4 4 4 4 4 4 4 3 3 3 3 2 2 1 1 1 1 1 1 1 1 0 -0 -0 -1 -2 -2 -2 -2 -2 -4 -3
5 5 4 4 4 4 4 3 3 3 3 2 2 2 1 1 0 0 0 0 0 0 -0 -1 -1 -1 -2 -3 -3 -3 -3 -3
5 5 5 5 4 4 4 4 3 3 3 3 2 1 1 1 0 0 0 0 -0 -1 -1 -2 -2 -2 -2 -3 -4 -4 -5 -5
6 5 5 5 5 5 4 4 4 3 3 2 1 2 1 0 -0 -0 -0 -0 -1 -1 -1 -1 -1 -2 -3 -3 -4 -4 -5 -5
6 5 5 5 4 4 4 3 3 3 3 2 2 1 1 -0 0 0 -1 -0 -1 -0 -1 -1 -2 -2 -3 -3 -4 -5 -5 -5

GFSFLT2_700_temp_036.txt.gz
Temp
4 5 4 4 4 3 4 4 4 4 3 3 3 3 3 3 3 3 3 3 2 2 2 3 3 3 3 3 3 2 3 3
4 4 4 4 3 3 3 3 3 2 2 2 2 2 2 2 2 2 2 2 2 2 2 2 2 3 3 2 2 3 4 3
4 4 4 2 1 2 2 1 1 1 2 1 2 2 2 2 2 2 2 2 2 2 2 2 2 2 2 2 2 2 3 2
4 4 4 4 3 2 1 0 0 1 1 1 1 1 1 2 2 2 2 2 2 2 2 2 2 2 2 2 2 2 2 2
3 4 3 4 4 3 2 -1 0 0 -1 -1 -1 1 1 2 2 2 1 1 1 1 2 2 2 1 1 2 2 2 2 2
4 3 4 3 3 3 2 0 -2 -2 -1 -2 -2 -2 -0 2 2 1 1 1 1 1 2 1 1 1 1 1 1 2 2 1
3 3 3 3 2 1 -0 -0 -2 -2 -2 -2 -2 -1 1 2 2 1 1 1 1 1 1 1 1 1 1 1 1 1 0 1
2 3 3 3 2 -1 -0 -0 -1 -1 -2 -2 -2 -1 0 1 1 1 1 1 1 1 1 1 1 1 1 1 1 1 0 0
2 2 1 2 1 -0 -0 -1 -0 -1 -2 -1 -0 1 1 1 1 0 0 1 1 1 1 1 1 1 1 1 0 0 0 0
1 2 0 0 0 0 -1 -0 -1 -1 -1 -0 0 1 1 0 0 0 1 1 1 1 1 0 1 1 0 0 -0 0 0 0
3 3 1 -0 -0 -0 -0 -0 -0 -1 -1 1 1 1 1 0 0 1 1 1 1 1 1 1 1 0 0 -0 -0 -0 -0 0
3 3 3 3 1 0 -0 0 1 1 1 1 1 1 1 1 1 2 1 2 1 1 1 1 1 0 -0 -0 -0 -1 -0 0
3 3 2 2 1 2 2 2 2 2 1 1 1 1 2 1 1 2 1 2 1 1 1 1 0 0 -1 -1 -1 -1 -1 -0
4 3 3 2 3 2 2 2 2 2 2 2 1 0 2 1 1 2 1 1 1 1 1 0 0 0 -1 -1 -2 -2 -2 -2
4 4 4 3 3 2 3 3 3 3 3 2 3 2 2 2 2 2 1 1 1 1 1 0 -0 -1 -1 -1 -2 -2 -2 -3
5 4 4 4 4 4 4 3 3 3 3 3 3 2 2 2 1 1 1 1 0 1 0 -0 -1 -1 -1 -1 -2 -2 -2 -3
5 5 5 4 4 4 3 4 4 3 3 3 3 2 2 2 1 1 1 1 1 0 0 -0 -2 -3 -3 -3 -3 -3 -3 -3
5 5 5 5 5 4 4 3 3 3 3 3 3 2 2 2 1 1 1 0 0 -1 -1 -1 -1 -1 -2 -3 -4 -3 -3 -4
6 6 5 5 5 5 4 4 4 3 3 3 3 2 3 2 1 1 1 -0 -0 -1 -1 -0 -1 -1 -1 -2 -2 -3 -3 -4
6 6 6 5 5 5 5 3 3 2 2 1 2 2 2 1 1 2 1 0 -0 0 -0 -1 -1 -1 -2 -2 -3 -3 -4 -4

GFSFLT2_700_temp_042.txt.gz
Temp
5 5 4 3 4 3 4 4 5 5 5 5 4 4 4 4 4 4 4 3 3 3 3 3 4 5 4 3 3 4 4 4
3 4 3 3 1 3 3 4 4 4 4 4 4 4 3 3 3 3 4 3 3 3 3 3 3 4 4 3 3 3 3 3
6 4 3 3 3 3 3 4 3 3 3 3 3 3 3 3 3 2 3 3 3 3 3 3 3 3 3 2 3 3 3 3
5 2 1 1 2 3 3 3 3 3 3 3 3 3 2 3 3 3 2 2 2 2 2 2 2 3 3 2 2 2 2 2
4 4 4 2 2 2 2 2 3 3 3 3 2 2 2 2 2 2 2 2 2 2 2 2 2 2 2 2 2 1 2 2
3 3 4 3 3 3 3 3 2 2 2 2 2 2 2 2 2 2 2 2 2 2 2 1 2 2 2 1 1 1 1 1
3 3 3 3 3 3 3 2 2 1 1 1 1 1 1 1 1 1 2 2 1 2 2 1 2 2 2 1 1 1 1 1
3 3 3 3 2 2 2 1 0 -0 1 1 1 0 0 1 1 1 1 1 1 1 1 1 2 1 1 1 1 0 1 1
2 3 2 2 3 2 1 1 1 0 0 -0 -1 0 -0 1 1 1 1 1 1 1 1 1 1 1 1 0 0 0 1 1
2 2 2 2 2 2 2 1 0 -1 -2 -1 -1 -0 0 0 1 1 1 1 1 1 1 1 1 1 1 1 0 0 1 1
2 2 2 2 2 2 1 1 -0 -1 -2 -1 -2 -0 0 0 1 1 1 1 1 1 1 2 1 1 1 0 0 0 1 1
2 2 1 1 1 1 0 -0 -0 -1 -1 -2 -1 -0 0 1 1 1 1 1 1 2 2 2 2 1 1 1 1 0 1 0
5 4 2 1 0 0 0 -0 -1 -1 -2 -2 -1 0 1 1 1 1 1 2 1 2 2 2 1 1 1 1 1 1 0 -0
5 5 4 4 3 2 1 2 2 2 2 0 1 1 2 1 1 2 2 1 2 2 2 2 1 1 1 0 0 0 -0 -0
5 5 5 4 5 4 4 3 3 3 3 3 1 2 1 2 1 2 2 2 2 2 2 2 1 1 -0 -0 -1 -1 -1 -1
5 5 5 5 5 5 5 4 4 4 3 3 2 2 2 2 2 2 2 1 1 1 1 1 0 -1 -1 -1 -1 -1 -1 -2
5 5 4 5 4 4 4 4 3 3 3 3 2 2 2 2 2 1 1 1 1 1 1 1 -0 0 -1 -1 -1 -1 -1 -0
5 5 4 4 4 4 4 4 4 3 3 3 2 2 2 2 2 1 1 1 1 1 0 0 0 -0 -1 -1 -1 -2 -2 -2
5 5 5 5 4 5 4 4 4 4 4 3 3 3 3 3 1 0 0 1 1 1 1 1 0 -0 -1 -1 -2 -2 -2 -2
6 6 6 5 5 5 5 5 4 4 4 4 3 3 2 1 1 0 1 1 1 1 1 1 0 0 -1 -2 -2 -2 -2 -3

GFSFLT2_700_temp_045.txt.gz
Temp
4 4 4 3 3 2 2 2 3 3 4 4 5 5 5 5 5 5 4 5 5 5 5 4 4 4 4 4 3 4 4 4
4 4 4 4 4 1 1 3 2 3 4 4 4 4 4 4 4 4 4 4 4 5 5 4 3 4 3 4 3 3 3 4
4 4 3 3 2 2 3 1 2 3 3 3 4 4 3 4 4 4 4 4 4 4 4 4 3 3 3 4 3 3 3 3
4 4 3 3 3 1 2 1 2 1 2 3 3 3 3 3 3 3 3 3 4 3 3 3 3 3 3 3 3 3 3 3
3 3 1 1 2 0 1 0 1 0 2 3 3 3 3 3 3 2 3 3 3 2 2 3 3 3 3 3 3 3 3 3
3 3 3 1 1 1 1 1 1 0 2 3 2 3 3 3 2 2 3 3 2 2 2 2 2 2 2 2 2 2 2 3
3 3 3 3 2 2 2 1 -1 1 1 2 2 2 2 2 2 2 2 3 2 2 2 2 2 2 3 2 2 2 2 2
3 3 3 2 2 2 2 1 1 1 2 2 2 2 2 2 1 1 1 2 2 1 2 2 2 2 2 2 2 2 2 1
3 3 3 3 2 2 2 2 -0 1 2 1 1 1 1 1 1 1 2 2 2 1 1 1 1 2 2 1 1 2 1 1
2 3 2 2 1 2 2 -0 -1 -1 0 1 1 1 1 -0 1 1 1 2 1 1 1 1 1 1 1 1 1 1 1 1
2 2 1 2 1 1 1 0 -0 -2 -1 -0 0 0 -0 -0 1 1 1 2 1 1 1 1 1 1 1 1 1 1 1 1
2 2 2 1 2 1 1 1 0 -1 -1 -1 -1 -0 -1 -0 0 1 1 1 1 2 2 2 1 1 1 1 1 0 0 0
4 3 2 2 2 1 1 0 -0 -2 -2 -2 -2 -1 -1 -0 0 1 1 1 1 1 2 2 1 1 1 1 1 0 0 0
5 4 3 1 1 1 0 0 -1 -1 -2 -2 -1 -2 -1 -0 0 1 1 1 1 1 1 1 1 1 1 1 0 1 1 0
5 5 5 3 1 1 0 -0 -1 -1 -1 -1 -1 -1 -0 -0 0 1 1 1 1 1 1 1 1 1 0 -1 -0 -0 -1 -1
5 5 5 5 4 4 3 2 3 1 0 1 1 -0 -0 -0 0 1 1 1 1 1 1 1 0 1 -0 -0 -1 -1 -1 -2
5 5 5 5 4 5 5 4 4 4 3 3 2 2 1 1 1 1 1 1 1 1 0 0 0 0 -0 -1 -1 -2 -2 -2
5 5 5 5 5 5 5 5 4 4 3 3 2 2 1 1 1 2 1 1 1 1 0 0 0 0 -0 -0 -1 -2 -1 -2
6 5 5 5 5 5 5 4 4 4 3 3 3 3 2 2 2 2 2 1 0 0 -0 0 0 0 -0 -0 -1 -1 -2 -1
6 6 5 6 5 5 5 5 4 4 4 3 3 3 3 2 1 1 1 -0 1 -0 0 0 -0 -0 -0 -0 -1 -2 -1 -2

GFSFLT2_700_temp_048.txt.gz
Temp
4 4 4 4 4 3 3 2 2 3 3 3 3 3 4 4 4 5 5 5 5 5 4 5 5 4 4 4 4 4 4 4
4 4 4 4 3 3 2 2 1 3 3 3 3 3 3 3 4 4 5 5 5 4 4 4 4 4 4 4 4 4 3 4
4 4 4 2 3 3 2 3 0 2 2 2 2 2 3 3 4 4 4 4 4 4 3 4 3 3 3 3 3 3 3 3
4 3 3 3 2 3 2 1 2 1 1 2 2 2 2 2 3 3 3 4 4 4 3 3 3 3 3 4 3 3 3 3
3 3 3 2 2 2 2 1 2 -1 1 1 1 2 2 2 3 3 3 4 4 4 3 3 3 3 3 3 3 3 3 3
3 3 3 1 1 1 1 1 1 -0 -0 1 1 2 2 2 2 2 2 3 3 4 3 2 2 2 3 3 3 2 2 2
2 3 2 1 2 1 0 1 0 -0 -1 -1 -1 1 2 2 2 2 2 2 3 3 2 2 2 2 2 2 2 2 2 2
2 2 2 1 1 0 1 0 0 -1 -0 -1 0 1 2 2 2 2 2 2 2 2 2 2 1 1 2 2 1 2 1 2
2 3 2 2 2 2 1 1 0 1 -0 -1 0 1 1 2 2 2 2 2 2 2 2 1 1 1 1 1 1 1 1 1
2 3 2 2 2 2 1 1 1 0 -1 -1 -0 0 1 1 1 1 1 1 2 2 1 2 1 1 1 1 1 1 1 1
2 2 2 2 1 1 1 1 0 -0 -1 -1 -1 -1 0 0 1 1 0 1 1 1 1 1 1 1 1 1 1 1 1 1
2 1 2 2 1 1 1 -1 -2 -1 -2 -1 -2 -2 -1 0 -1 -1 0 0 1 1 1 1 1 1 1 1 1 1 1 1
2 2 2 1 2 1 1 0 -1 -2 -1 -2 -2 -2 -2 -1 -1 -0 0 0 0 0 0 0 1 1 1 1 1 1 1 1
4 2 1 2 1 1 1 0 0 -1 -1 -1 -2 -2 -2 -1 -1 -1 -1 0 0 0 1 1 1 1 1 1 1 -0 -1 -1
4 4 3 1 1 1 0 0 -0 -0 -1 -2 -1 -2 -2 -2 -1 -1 -0 0 0 1 1 1 1 1 1 1 0 -0 -1 -1
5 5 4 3 2 1 1 0 0 -0 -1 -1 -1 -1 -1 -2 -1 -1 -1 -0 0 1 1 1 1 1 0 0 -0 -1 -1 -1
5 5 5 5 5 5 4 4 2 0 -1 -1 -2 -2 -1 -1 -1 -0 -1 -0 0 1 1 1 1 0 -0 -0 -0 -0 -1 -1
5 5 5 5 5 5 5 5 4 3 3 2 2 1 1 2 1 1 0 0 1 1 1 1 0 -0 -0 -0 -0 -0 -1 -0
5 5 5 5 5 5 5 4 4 4 3 3 3 3 3 3 2 2 1 1 1 1 0 0 0 -0 -0 -0 -0 -1 -1 -1
6 6 5 5 5 5 5 5 4 4 4 4 3 3 3 2 2 1 1 0 -0 -0 -0 -0 0 -0 -0 -0 -1 -1 -1 -1

GFSFLT2_700_temp_054.txt.gz
Temp
5 5 5 5 4 4 4 4 4 4 3 3 4 5 5 5 4 3 4 4 4 4 4 4 4 4 4 4 5 4 4 4
5 4 4 4 4 3 4 4 3 3 3 2 3 4 5 4 4 3 4 3 4 3 4 3 4 3 4 4 4 4 4 4
3 3 3 3 3 3 3 3 3 3 3 3 1 3 3 3 3 3 3 3 3 3 3 3 3 3 4 4 4 4 4 4
3 2 3 3 3 3 3 3 2 3 3 2 1 2 3 3 3 3 3 3 2 3 3 3 3 3 3 3 3 3 3 3
3 3 3 3 2 2 2 2 1 2 2 2 1 1 2 2 3 2 2 2 3 3 3 3 3 3 3 3 3 3 3 3
4 3 2 1 2 2 2 2 2 2 1 0 1 1 2 2 3 3 3 2 2 2 3 2 3 3 3 3 2 2 3 3
3 3 3 2 2 2 2 2 2 2 0 0 0 1 2 3 2 2 2 2 2 2 2 2 2 2 2 2 2 2 2 2
3 2 2 2 2 2 2 3 2 1 1 1 1 2 1 2 2 2 2 2 2 1 2 2 2 2 2 2 2 2 2 2
2 2 3 2 2 1 2 3 1 0 -1 -0 0 0 1 2 2 2 2 1 2 2 2 2 1 1 1 1 1 2 1 2
3 2 2 2 2 1 1 1 0 0 -1 -1 -0 -1 -0 -0 2 2 2 2 1 1 1 1 1 1 1 1 1 1 1 1
2 2 2 2 1 1 0 0 0 -0 -1 -1 -1 -1 -1 -1 1 1 1 1 1 1 1 1 0 1 1 1 1 1 1 1
2 2 1 2 1 1 1 1 0 -1 -0 -2 -2 -1 -1 -1 0 0 0 1 0 0 0 1 0 0 0 0 1 1 1 1
3 2 2 2 1 1 1 0 0 -0 -0 -0 -1 -1 -1 -1 -0 -0 0 0 -0 -1 -0 0 0 0 0 0 0 0 1 1
5 3 2 1 1 1 1 1 1 0 -0 -1 -1 -1 -1 -1 -0 -0 -0 -0 -1 -1 -1 -1 -0 -0 -0 0 0 1 1 0
5 4 2 2 1 1 1 1 0 0 0 -1 -1 -1 -2 -1 -1 -1 -0 -1 -1 -1 -1 -1 -0 -0 -0 0 1 1 -1 0
5 4 3 2 2 1 1 1 0 1 0 -0 -1 -1 -2 -2 -1 -1 -1 -1 -1 -1 -1 -1 -1 -0 -0 -0 0 0 -1 -1
5 5 4 3 2 2 2 1 1 1 0 -0 -1 -1 -2 -2 -2 -2 -1 -1 -1 -1 -1 -1 -1 -1 -0 -0 -0 0 0 0
5 5 5 5 4 2 2 2 1 1 0 0 -0 -1 -1 -2 -2 -2 -2 -1 -1 -1 -1 -1 -1 -1 -1 -0 -0 -0 -0 0
6 5 5 5 5 5 4 4 2 1 0 0 -0 -0 -1 -1 -1 -1 -1 -1 -1 -2 -1 -1 -1 -1 -1 -1 -1 -1 -1 -1
6 6 6 5 5 5 5 4 4 4 2 2 1 0 -0 -0 -1 -1 -1 -1 -2 -1 -1 -1 -1 -1 -1 -1 -1 -1 -1 -1

GFSFLT2_700_temp_060.txt.gz
Temp
6 6 6 5 4 5 5 4 3 4 4 4 3 3 3 4 4 4 4 4 4 4 5 5 4 4 4 3 4 4 5 4
6 6 5 5 5 5 4 4 3 2 3 3 3 3 3 4 4 3 4 4 4 4 4 4 4 3 3 3 3 4 4 4
5 5 5 5 4 4 4 4 4 4 3 3 3 3 2 4 4 3 3 3 4 4 4 4 3 3 3 3 3 3 4 3
5 4 4 4 4 4 4 4 3 3 3 3 2 2 3 3 3 3 3 4 3 3 4 4 3 3 3 3 3 3 3 3
5 4 4 4 4 4 3 4 2 3 3 3 3 2 2 2 2 3 3 3 3 3 4 3 3 3 3 3 3 4 3 3
5 4 4 4 4 4 3 3 3 2 3 3 3 2 2 1 2 3 3 3 2 3 4 3 3 3 3 2 2 3 3 3
6 5 4 4 3 3 2 2 3 3 2 3 2 2 2 2 2 2 2 3 2 3 3 3 3 3 2 2 2 3 2 2
6 5 5 4 3 3 2 2 2 2 2 2 2 2 2 2 2 2 2 2 2 2 3 3 2 3 2 2 1 3 2 2
6 6 4 4 3 3 3 3 2 2 2 2 1 1 1 -0 1 1 2 2 2 2 2 2 2 2 2 2 2 2 2 2
5 4 4 3 3 3 2 2 2 2 2 1 1 1 1 -0 -0 1 1 1 2 2 2 2 2 2 1 1 1 1 1 2
6 3 3 3 3 3 2 2 2 2 2 1 1 1 0 0 0 0 1 1 1 2 2 1 2 2 1 1 1 1 1 1
6 4 3 3 2 2 3 2 1 2 2 1 1 0 1 1 -0 1 0 0 0 2 1 1 1 1 1 1 1 1 1 1
6 5 4 3 3 3 3 2 2 2 2 1 1 -0 -0 -1 -1 -0 -0 0 1 1 1 1 1 1 0 1 0 0 0 1
6 6 5 4 3 3 5 2 1 1 1 1 1 -1 -1 -1 -2 -0 -0 -0 0 1 -1 1 1 1 1 0 0 0 0 1
6 6 4 3 2 3 3 1 1 1 0 -0 -0 -1 -1 -1 -1 -3 -2 -1 -1 -1 -2 0 1 1 -0 -0 -0 0 -0 -0
6 6 5 4 3 3 3 2 2 2 1 1 0 -0 -1 -1 -2 -2 -2 -1 -1 -1 -1 0 0 0 -0 -0 -0 -0 -0 -1
7 6 6 5 3 3 2 2 2 1 1 1 -0 -0 -0 -1 -1 -2 -2 -2 -1 -1 -1 -1 -0 -0 -0 -0 -0 -0 -0 -0
7 6 6 6 4 3 2 2 2 1 0 0 0 -0 -0 -1 -2 -1 -1 -1 -1 -0 -1 -0 -1 -0 -1 -0 -0 -0 -0 -0
7 7 6 6 6 5 3 3 2 2 1 1 1 1 -0 -1 -1 -1 -1 -1 -0 -1 -0 -0 -1 -1 -1 -1 -1 -0 -0 -0
7 7 7 6 6 6 5 3 2 1 1 1 0 0 1 1 0 -0 -1 -0 0 -0 -0 -0 -0 -0 -1 -1 -1 -1 -1 -0

GFSFLT2_700_temp_063.txt.gz
Temp
6 6 6 6 6 5 5 5 4 5 5 4 4 4 3 3 4 4 4 5 5 4 4 4 4 5 5 6 6 5 5 5
6 6 6 6 5 5 5 5 4 3 2 3 4 2 4 3 4 3 4 4 4 4 3 4 4 4 4 5 5 5 5 5
5 5 5 5 5 4 5 4 4 2 2 2 3 3 3 3 4 4 4 4 4 4 3 3 4 3 4 4 5 4 4 5
5 6 6 5 5 4 4 3 3 2 2 1 3 3 3 3 4 3 3 3 3 3 3 3 4 3 3 5 5 3 5 5
6 6 5 4 4 4 4 4 3 3 3 3 3 2 2 3 4 3 3 3 4 3 3 3 3 3 3 5 4 4 4 4
6 6 6 4 4 4 4 4 3 3 3 2 3 3 3 2 2 3 3 4 3 3 3 3 3 2 3 4 4 4 4 3
6 5 5 5 4 3 3 3 4 3 2 2 2 2 3 3 2 1 2 3 3 3 3 3 2 2 2 4 4 3 3 3
6 5 5 5 4 3 3 2 2 3 2 2 2 2 3 2 2 2 3 2 3 3 3 2 3 2 2 3 4 3 3 3
6 5 4 4 3 4 3 3 2 2 3 3 2 2 2 2 2 2 2 2 2 2 2 2 2 2 1 3 4 3 3 3
6 5 3 3 3 3 3 3 3 3 2 2 2 2 2 2 2 1 1 1 2 2 2 2 2 2 2 2 3 2 2 2
6 5 4 3 3 3 2 3 2 2 2 2 2 2 2 1 1 1 1 1 2 2 2 2 2 2 1 1 2 2 1 1
6 6 4 3 2 3 2 2 2 2 1 1 2 2 2 1 1 1 1 1 1 2 2 2 2 2 1 1 1 1 1 1
6 6 5 3 2 2 2 3 2 1 1 2 1 1 1 1 0 0 1 -0 1 1 2 1 2 1 1 1 0 0 0 1
6 6 6 4 3 2 2 2 2 1 2 2 1 1 1 1 1 0 0 -0 -0 -1 1 2 1 1 1 1 0 1 1 1
6 6 6 5 4 3 3 4 3 2 2 2 1 1 1 1 0 0 -0 0 -0 -1 1 1 -0 -1 0 1 1 1 1 0
7 7 6 6 4 3 4 4 5 1 2 2 1 1 1 -0 0 0 0 -0 -2 0 0 1 -1 -2 -1 -0 0 0 0 0
7 7 6 6 5 4 4 4 4 1 1 1 0 0 0 -1 1 0 -1 -2 -1 0 1 1 -1 -1 -0 -0 0 -0 -0 0
7 7 7 7 6 5 4 3 3 2 1 1 1 0 -0 -0 0 -0 -1 -1 -1 -0 -0 -1 -1 -1 -0 -0 -0 -0 -0 -0
7 7 7 7 7 6 4 3 3 3 2 2 0 -0 -0 -0 -1 -1 -1 -1 -0 -1 -1 -1 -1 -1 -1 -0 -0 -0 -1 -1
7 7 7 7 7 7 6 4 3 3 2 2 2 0 -0 -0 -0 -1 -1 -2 -1 -2 -2 -1 -1 -1 -1 -1 -1 -1 -1 -1

GFSFLT2_700_temp_066.txt.gz
Temp
7 6 6 6 6 6 5 6 4 4 4 4 3 3 4 4 5 5 5 5 5 5 5 5 5 6 6 5 5 5 5 6
7 6 5 6 6 6 5 5 2 3 4 3 2 3 3 4 4 4 4 4 4 4 4 4 6 5 5 5 5 5 5 5
7 6 5 6 6 6 5 5 4 4 4 2 1 3 3 4 3 3 3 4 4 4 4 4 5 4 5 5 5 5 5 5
7 6 6 6 6 6 5 5 4 3 3 2 1 2 2 3 3 3 4 4 3 3 3 3 4 4 5 4 4 4 5 5
6 6 6 5 5 5 5 4 4 3 3 2 2 1 3 3 3 4 4 4 3 3 3 3 3 4 4 4 4 5 5 4
7 6 6 6 5 4 4 3 3 4 3 3 3 3 3 2 3 3 3 3 3 3 3 2 3 4 4 4 4 4 4 4
7 6 6 6 5 4 3 3 3 3 3 3 3 2 2 3 3 3 3 3 3 3 3 2 2 4 4 4 3 4 4 4
7 7 6 5 4 4 3 3 2 2 3 3 3 3 3 2 3 3 3 3 3 3 2 2 2 4 3 4 4 4 3 3
7 6 6 5 4 4 3 3 2 2 2 2 2 2 2 2 2 2 1 2 3 2 2 2 2 4 3 3 3 3 3 3
7 6 6 4 4 4 3 4 2 2 2 2 2 2 2 3 2 2 1 1 2 2 2 2 2 3 3 3 3 3 3 2
6 6 6 5 3 3 3 3 3 2 2 2 1 2 2 2 1 2 2 2 2 2 2 2 2 2 2 2 2 2 2 2
6 6 6 5 4 3 2 3 3 2 2 2 2 2 2 2 1 1 1 2 2 2 2 2 1 1 2 1 2 1 1 1
6 6 5 5 5 3 3 2 2 2 2 2 1 2 2 2 2 1 -0 1 2 2 1 1 1 1 1 1 1 1 1 1
6 6 5 5 4 3 3 2 2 2 2 1 1 1 2 0 2 2 -0 -0 1 2 2 2 1 1 1 -0 0 1 1 1
7 6 6 5 3 3 3 3 3 1 2 1 1 2 1 1 1 1 0 -0 1 1 1 1 1 0 1 -0 0 1 1 1
7 6 6 6 4 3 2 3 4 3 2 2 2 1 1 1 1 1 -1 -0 -0 -0 -0 0 1 0 -1 0 -1 -2 0 0
7 7 6 6 5 4 4 3 3 3 3 2 1 1 1 1 1 0 -1 -1 -1 -1 -0 -1 -0 -0 -0 -1 -1 -0 -0 0
7 7 7 6 6 5 4 3 3 3 3 3 2 1 1 1 0 -0 -0 -0 -0 0 -0 -2 -1 -1 0 -1 -1 -0 -0 -0
7 7 7 7 6 6 5 4 4 3 3 2 1 1 0 0 0 -0 -1 -0 -1 -0 -2 -2 -2 -0 -0 -1 -1 -1 -1 -1
7 7 7 7 7 7 6 6 4 3 3 2 0 -0 0 -0 0 -0 0 -0 -0 -0 -1 -3 -1 -1 -1 -1 -1 -1 -1 -1

GFSFLT2_700_temp_069.txt.gz
Temp
7 7 7 6 5 6 6 5 5 5 3 4 3 4 4 4 5 5 5 5 5 6 6 6 6 6 5 5 5 5 5 5
7 7 7 6 5 5 5 5 5 3 3 2 4 4 2 3 2 4 4 5 5 5 5 6 5 5 5 4 5 5 5 5
8 7 7 6 6 5 5 5 5 4 3 2 3 4 2 2 2 3 4 4 5 5 5 5 5 5 4 5 4 5 5 5
8 7 7 6 6 6 5 5 5 4 4 3 2 3 1 2 2 3 4 4 4 4 5 5 4 4 4 4 4 5 5 5
7 7 7 6 6 6 5 5 4 4 4 3 3 2 2 2 2 3 3 3 3 4 4 4 4 4 4 4 4 5 5 5
7 7 7 6 6 5 4 4 4 4 4 3 3 3 1 1 2 3 2 2 2 3 4 4 4 4 4 4 4 4 4 4
7 7 7 6 6 5 5 4 4 3 3 3 3 3 2 2 2 3 3 3 3 3 4 4 4 3 3 4 4 4 4 4
7 7 7 7 6 5 4 4 3 3 3 3 3 2 3 2 2 3 3 3 3 3 4 4 4 3 3 3 3 3 3 3
7 7 7 7 6 5 4 4 3 3 2 2 3 2 2 2 3 3 3 3 2 2 3 3 3 2 3 3 3 3 3 2
7 7 7 6 5 4 4 4 4 3 2 2 2 2 2 1 3 2 2 2 2 2 2 3 4 3 3 3 2 3 3 3
7 7 6 6 5 4 4 3 4 3 2 2 2 2 2 2 1 2 2 2 3 2 1 2 3 3 2 2 2 2 3 2
7 6 6 6 5 5 4 3 3 3 2 2 3 2 2 2 1 1 1 1 1 0 1 2 3 2 2 1 2 2 2 2
7 6 6 6 6 5 5 4 3 3 3 2 1 1 2 2 2 2 1 1 1 0 1 1 2 1 1 1 1 1 1 1
7 6 6 6 6 4 4 3 3 3 2 2 2 2 1 1 2 1 1 1 1 1 1 1 1 1 1 1 1 1 0 1
7 6 6 6 5 5 3 3 2 2 2 2 1 1 1 1 1 1 1 1 -1 -1 1 1 1 1 1 1 1 1 1 -0
7 6 6 6 6 5 4 3 4 3 2 1 2 1 1 2 1 1 1 -0 -1 -1 -0 0 -0 0 0 1 0 -0 -1 -0
7 7 6 6 6 6 5 4 3 3 2 1 1 2 1 1 1 1 0 0 -1 -1 -2 -0 -0 0 0 0 -0 -1 -2 -2
6 7 7 6 6 6 5 4 4 3 4 3 1 2 1 1 1 0 1 0 -1 -1 -2 -1 -1 -0 -0 -0 -1 -1 -2 -1
6 7 7 7 6 5 5 4 4 4 4 2 2 3 2 1 1 1 0 1 -1 -1 -1 -1 -1 -1 -1 -1 -2 -2 -2 -1
6 7 7 7 6 6 5 5 4 4 3 3 1 2 1 1 1 1 0 -0 -0 -1 -0 -1 -0 -1 -2 -2 -2 -2 -2 -1

GFSFLT2_700_temp_072.txt.gz
Temp
7 7 7 7 6 5 5 5 4 4 4 4 3 4 3 3 3 4 6 6 6 6 6 6 6 6 5 5 6 6 6 5
7 7 7 7 6 5 4 5 5 4 4 3 3 2 3 3 1 2 4 5 5 5 5 6 6 5 5 5 5 5 5 5
7 7 7 7 7 6 5 5 4 4 4 4 1 2 2 3 2 2 3 4 4 5 5 5 5 5 5 5 5 5 5 4
7 7 7 7 7 6 5 5 5 5 4 4 3 2 1 2 2 2 2 3 4 4 5 5 5 5 5 5 5 5 4 5
7 7 7 7 6 6 6 5 5 4 4 3 3 3 2 2 2 2 2 3 4 4 4 4 4 4 4 4 4 4 4 5
7 7 7 7 7 6 5 5 5 4 4 4 3 3 2 2 2 1 2 3 4 4 4 4 4 4 4 4 4 5 4 4
7 7 7 7 6 6 5 5 5 4 3 3 3 2 2 2 1 1 2 3 3 3 3 3 3 3 3 3 4 4 4 4
7 7 7 7 6 6 5 5 4 4 3 3 3 2 3 2 1 1 2 3 3 2 3 3 3 3 3 3 4 3 4 4
7 7 7 7 6 6 5 4 4 4 3 2 3 3 2 2 2 2 1 2 3 3 3 2 3 3 3 3 3 3 3 3
7 7 6 6 6 6 5 4 3 4 3 2 2 2 2 2 2 1 1 2 2 2 2 2 3 2 2 3 3 3 3 3
7 6 6 6 6 5 4 3 3 3 3 2 2 2 2 2 1 0 1 1 2 2 2 2 2 3 2 2 3 3 2 2
6 7 6 6 6 5 5 4 3 3 2 2 2 2 2 1 2 0 1 1 1 2 2 2 2 2 2 2 2 2 2 1
6 6 6 6 6 5 5 4 3 3 2 2 1 2 2 1 -0 0 1 1 1 1 1 1 2 2 1 1 1 1 2 1
6 6 6 6 6 5 5 3 3 3 2 2 1 1 2 1 -0 0 1 1 -0 -0 0 0 1 1 2 1 1 1 1 1
6 6 6 6 6 5 4 4 3 3 3 2 1 1 1 1 1 1 -0 -0 -0 -1 -0 -1 0 0 2 1 1 1 1 1
6 6 6 6 6 5 4 3 3 3 2 2 2 2 1 1 1 0 0 -1 -1 -1 -1 -0 0 1 1 1 1 0 0 1
6 6 6 6 6 6 4 4 3 3 2 2 2 1 1 1 1 1 1 1 0 -1 -1 -1 -0 0 1 1 1 0 -0 -0
6 6 6 6 6 6 5 4 4 4 3 2 1 1 1 1 1 1 1 1 0 -0 -1 -1 -3 -1 -1 -0 -0 0 0 -1
6 6 6 6 6 6 5 4 4 3 3 3 2 1 1 1 1 1 0 1 0 0 -0 -1 -1 -3 -2 -1 -1 -0 -2 -2
6 6 6 6 6 6 5 5 4 4 3 3 3 2 2 1 1 1 0 0 0 0 -0 -1 -1 -1 -2 -3 -2 -2 -3 -3

GFSFLT2_700_temp_075.txt.gz
Temp
7 7 7 7 7 6 6 5 5 5 4 4 4 4 4 3 4 4 4 5 5 5 6 6 6 5 5 6 5 5 5 5
7 7 7 7 7 7 6 5 4 4 4 4 4 4 2 3 3 3 4 4 4 5 5 5 5 5 5 5 5 5 5 5
7 7 7 7 7 7 6 5 4 4 4 4 4 3 4 2 3 3 2 3 3 4 4 5 5 5 5 5 5 5 5 5
7 7 7 7 7 7 7 5 5 4 4 4 4 3 3 2 2 2 2 2 2 3 4 4 5 5 5 5 5 5 4 4
7 7 7 7 7 7 6 6 5 5 5 4 3 3 3 3 2 2 2 2 1 3 3 4 4 5 4 4 4 4 4 4
7 7 7 7 7 7 7 6 5 5 5 5 4 3 3 3 1 2 2 1 2 3 3 4 4 4 4 3 4 4 4 4
7 7 7 7 6 6 6 6 5 5 4 4 3 3 3 3 2 2 2 1 2 3 3 3 3 3 3 3 3 3 3 4
7 7 7 6 6 6 6 6 5 5 4 3 3 3 3 2 2 1 2 1 2 3 3 3 3 3 3 3 3 3 3 3
7 7 6 6 6 6 5 5 5 4 4 3 3 3 2 2 2 2 2 2 2 2 2 2 2 2 3 3 2 2 3 3
7 6 6 6 6 6 6 5 4 4 3 3 3 2 2 2 2 1 1 1 0 1 2 2 2 2 2 2 2 2 3 3
6 6 6 6 6 6 5 5 4 3 3 3 3 3 2 2 2 1 1 1 1 1 1 2 2 2 1 2 2 2 2 2
7 6 6 6 6 5 5 5 3 3 3 3 2 2 2 2 2 1 1 1 1 2 2 1 1 1 1 1 1 2 1 2
7 6 6 6 5 5 5 4 3 3 3 3 2 2 2 2 2 2 1 1 1 2 2 1 1 1 1 0 1 1 1 2
7 6 6 6 5 5 5 4 3 2 3 2 2 1 1 2 2 2 1 0 1 1 2 1 1 1 1 0 0 1 1 1
7 6 6 6 5 5 4 3 3 3 2 2 2 1 1 1 1 2 1 1 1 2 1 2 2 2 1 1 1 1 1 1
7 6 6 5 5 5 4 3 2 2 2 2 2 1 1 2 2 1 0 1 1 1 1 1 1 1 1 1 -0 0 1 1
7 6 6 5 5 5 4 4 3 2 2 2 2 1 1 1 1 1 1 1 1 1 1 0 -0 -1 -0 -0 0 1 1 0
7 6 6 5 5 5 5 4 3 2 2 2 2 2 1 2 1 1 1 1 0 0 0 -0 -0 -0 -0 -0 -0 -0 -0 0
7 6 6 5 5 5 5 4 3 3 2 2 2 1 2 1 1 1 1 1 0 0 0 0 1 -0 -1 -1 -1 -1 -1 -1
7 6 6 5 5 5 5 5 4 3 3 2 2 2 1 1 1 1 1 1 0 0 0 0 1 0 -1 -2 -3 -3 -2 -2

GFSFLT2_700_temp_078.txt.gz
Temp
8 8 7 7 7 8 7 7 6 5 5 5 4 4 4 3 4 4 4 4 5 5 5 5 5 5 5 5 5 5 5 4
8 8 7 7 7 7 7 7 6 5 5 4 4 4 4 3 3 3 3 3 4 5 5 5 5 5 5 5 5 5 4 4
8 8 7 7 7 7 7 7 6 5 5 5 4 4 4 3 2 2 3 3 3 4 4 4 4 4 4 4 5 5 4 4
7 7 7 7 7 7 7 7 6 5 5 5 4 4 4 3 2 2 2 2 3 3 3 3 4 3 4 4 4 5 4 4
7 7 7 7 7 7 7 7 6 6 5 5 4 4 3 3 3 2 2 2 2 2 2 3 3 3 4 4 5 4 4 4
7 7 7 7 7 7 7 6 6 6 5 4 4 4 3 3 3 2 3 2 2 2 2 2 3 3 3 3 4 4 4 4
7 7 7 7 7 7 7 7 6 6 5 5 5 4 3 3 2 3 2 2 2 1 2 2 2 3 3 3 3 3 4 4
7 7 7 7 7 6 6 6 6 6 5 5 4 4 3 2 2 2 2 2 2 2 2 2 2 3 2 2 3 3 4 4
7 7 7 6 6 6 6 6 6 5 5 5 3 3 3 2 2 2 1 2 2 2 2 2 2 2 2 2 2 3 3 3
7 7 6 6 6 6 6 6 6 5 4 4 3 2 3 2 2 2 1 2 2 1 2 1 1 1 2 2 2 2 3 3
7 7 6 6 6 6 6 6 6 5 4 3 3 3 3 2 2 2 2 2 2 1 1 2 1 1 2 2 2 2 2 2
7 7 6 6 6 6 6 6 6 5 4 3 4 3 2 2 2 2 1 1 1 0 1 1 1 2 1 1 1 2 2 2
7 7 6 6 6 6 6 5 5 4 4 3 3 2 3 1 1 2 2 1 1 1 0 0 1 1 1 0 1 2 1 2
7 7 6 6 6 6 6 5 5 4 3 3 3 2 1 3 1 2 2 1 1 1 1 1 1 1 1 1 1 1 1 2
8 7 6 6 6 6 6 5 4 4 3 3 3 2 1 2 2 1 2 2 1 1 1 1 2 2 1 2 1 1 1 1
7 7 6 6 5 5 5 5 4 3 3 3 2 2 1 1 1 2 1 1 1 1 1 1 1 1 1 1 -1 -1 1 2
8 7 7 6 5 5 5 5 4 3 3 3 2 2 2 1 2 1 1 1 1 0 1 1 1 1 1 1 1 1 0 -1
8 7 7 6 5 5 5 5 4 4 3 3 3 2 2 1 1 1 1 1 0 1 1 1 1 1 0 -0 -1 -0 -0 0
8 7 7 6 5 5 5 5 5 4 3 2 2 2 1 1 1 1 1 1 1 0 1 1 1 0 -0 -0 -0 -1 -1 -1
8 7 7 6 5 5 6 5 5 4 4 3 2 2 2 1 1 1 1 1 1 0 -0 -0 0 0 0 -1 -2 -2 -2 -1